Погода в Тухчаре

Россия / Республика Дагестан     43°13′19″N   46°24′48″E
темп.,
°C
ветер,
м/с
пор.,
м/с
влажн.,
%
обл.,
%
осадки,
мм/ч
давл.,
гПа
погр.,
м
25 июня, сб
сб2500:00+17юв228717 0.1 100826
03:00+16юз228889 0.1 100914
06:00+19зсз237182 0.0 1010193
09:00+25ссз224623 0.0 10091194
12:00+29всв434098 0.0 10082091
15:00+29в644099 0.0 10071880
18:00+24всв5656100 0.5 1008424
21:00+20ююв1175100 1.0 100912
26 июня, вс
вс2600:00+19зюз3485100 0.0 100969
03:00+18з3390100 0.6 100866
06:00+19зсз2386100 0.0 1009146
09:00+24сз2258100 0.0 1008831
12:00+27ссз334389 0.0 10071426
15:00+29з4338100 0.0 10061725
18:00+28зюз6645100 0.1 1006675
21:00+21з4974100 0.3 1009293
27 июня, пн
пн2700:00+20зюз4779100 0.0 1009217
03:00+19з37820 0.0 1010162
06:00+21зюз58660 0.0 1010460
09:00+27зсз664840 0.0 10101170
12:00+29сз544846 0.0 10101511
15:00+28ссз4350100 0.0 10101136
18:00+27сз125636 0.2 1010580
21:00+20св11707 0.2 101211
28 июня, вт
вт2800:00+20зюз2273100 0.0 101117
03:00+19з238087 0.0 101035
06:00+21з34735 0.0 1010225
09:00+27сз33370 0.0 10101323
12:00+32ссз34260 0.0 10082189
15:00+33ссв752318 0.0 10082806
18:00+29св653123 0.1 10101220
21:00+20ю3358100 0.3 101230
29 июня, ср
ср2900:00+20ююз2259100 0.0 101217
03:00+19ююз22585 0.0 101118
06:00+22зюз23470 0.0 1012146
09:00+28сз33330 0.0 10121238
12:00+32с222423 0.0 10112542
15:00+26всв7855100 0.0 1011916
18:00+24в8860100 0.0 1012865
21:00+20в6983100 0.1 1013474